Printer-friendly version
Follow the MPC on Twitter Follow the MPC on Facebook The MPC blog
Minor Planet Center

MPEC 2005-V74 : 2005 VO5

The following Minor Planet Electronic Circular may be linked-to from your own Web pages, but must not otherwise be redistributed electronically.

A form allowing access to any MPEC is at the bottom of this page.


Read MPEC 2005-V73 Read MPEC 2005-V75


M.P.E.C. 2005-V74                                Issued 2005 Nov. 11, 15:05 UT

     The Minor Planet Electronic Circulars contain information on unusual
         minor planets and routine data on comets.  They are published
   on behalf of Commission 20 of the International Astronomical Union by the
          Minor Planet Center, Smithsonian Astrophysical Observatory,
                          Cambridge, MA 02138, U.S.A.

                  Supported in part by the Brinson Foundation
                  Supported in part by the TABASGO Foundation
             Prepared using the Tamkin Foundation Computer Network

                              MPC@CFA.HARVARD.EDU
          URL http://cfa-www.harvard.edu/iau/mpc.html  ISSN 1523-6714

                                   2005 VO5

Observations:
     K05V05O* C2005 11 09.62018 06 01 24.02 -24 42 18.1          18.5 V EV074E12
     K05V05O  C2005 11 09.62791 06 01 22.36 -24 41 51.3          18.7 V EV074E12
     K05V05O  C2005 11 09.63563 06 01 20.67 -24 41 25.6          18.6 V EV074E12
     K05V05O  C2005 11 09.65607 06 01 16.34 -24 40 16.2                 EV074E12
     K05V05O  C2005 11 09.65884 06 01 15.62 -24 40 06.7          18.9 V EV074E12
     K05V05O  C2005 11 09.66161 06 01 15.09 -24 39 57.5          19.0 V EV074E12
     K05V05O  C2005 11 09.67116 06 01 13.04 -24 39 24.4          19.0 V EV074E12
     K05V05O  C2005 11 09.68066 06 01 11.02 -24 38 51.7          18.8 V EV074E12
     K05V05O  C2005 11 09.69013 06 01 08.97 -24 38 19.6          18.9 V EV074E12
     K05V05O  C2005 11 09.69951 06 01 06.92 -24 37 47.5          19.2 V EV074E12
     K05V05O  C2005 11 10.32305 05 59 01.94 -24 02 35.2          19.2 R EV074854
     K05V05O  C2005 11 10.32881 05 59 00.73 -24 02 15.5          19.2 R EV074854
     K05V05O  C2005 11 10.33554 05 58 59.32 -24 01 52.6          19.2 R EV074854
     K05V05O  C2005 11 10.36441 05 58 53.06 -24 00 15.0          17.4 R EV074H06
     K05V05O  C2005 11 10.36892 05 58 52.09 -24 00 00.0          18.6 R EV074H06
     K05V05O  C2005 11 10.37425 05 58 51.01 -23 59 41.4          18.3 R EV074H06
     K05V05O  C2005 11 10.41581 05 58 41.78 -23 57 19.6          18.5 R EV074734
     K05V05O  C2005 11 10.41660 05 58 41.63 -23 57 17.6          18.6 R EV074734
     K05V05O  C2005 11 10.41737 05 58 41.41 -23 57 14.2          18.6 R EV074734
     K05V05O  C2005 11 10.41816 05 58 41.29 -23 57 12.2          18.6 R EV074734
     K05V05O  C2005 11 10.41895 05 58 41.13 -23 57 09.1          18.7 R EV074734
     K05V05O  C2005 11 10.43323 05 58 40.08 -23 56 12.0                 EV074F65
     K05V05O  C2005 11 10.43410 05 58 39.87 -23 56 08.8                 EV074F65
     K05V05O  C2005 11 10.43502 05 58 39.69 -23 56 05.8                 EV074F65
     K05V05O  C2005 11 10.43596 05 58 39.51 -23 56 02.7                 EV074F65
     K05V05O  C2005 11 11.26796 05 55 52.76 -23 08 30.5          18.2 R EV074734
     K05V05O  C2005 11 11.28073 05 55 50.01 -23 07 46.8          18.9 R EV074649
     K05V05O  C2005 11 11.29317 05 55 47.46 -23 07 04.8          18.4 R EV074649
     K05V05O  C2005 11 11.29495 05 55 47.07 -23 06 59.0          18.6 R EV074649
     K05V05O  C2005 11 11.29672 05 55 46.74 -23 06 52.6          18.7 R EV074649

Observer details:
649 Powell Observatory, Louisburg.  Observers R. Fredrick, R. Trentman.
    0.75-m Newtonian reflector + CCD.
734 Farpoint Observatory.  Observers G. Hug, D. Tibbets.  0.7-m reflector
    + CCD.
854 Sabino Canyon Observatory, Tucson.  Observer J. E. McGaha.  0.36-m f/10.0
    Schmidt-Cassegrain + CCD.
E12 Siding Spring Survey.  Observer G. J. Garradd.  Measurers E. C. Beshore,
    E. J. Christensen, G. J. Garradd, A. D. Grauer, R. E. Hill, R. A. Kowalski,
    S. M. Larson, R. H. McNaught.  0.5-m Uppsala Schmidt + CCD.
F65 Haleakala-Faulkes Telescope North.  Observers M. J. Fitch, R. A. Watson,
    A. F. Lewis, S. L. Parks, C. A. Saywer, A. D. Taylor.  2.0-m
    Ritchey-Chretien + CCD.
H06 New Mexico Skies Observatory.  Observer R. Hutsebaut.  0.30-m reflector
    + CCD.

Orbital elements:
2005 VO5
Epoch 2005 Nov. 6.0 TT = JDT 2453680.5                  MPC
M  19.22031              (2000.0)            P               Q
n   0.35802132     Peri.  241.36730     +0.93056138     +0.27966369
a   1.9642501      Node   101.56356     -0.18985681     +0.92044318
e   0.5497932      Incl.   13.95789     -0.31306535     +0.27307980
P   2.75           H   19.6           G   0.15
From 30 observations 2005 Nov. 9-11.

Ephemeris:
2005 VO5                 a,e,i = 1.96, 0.55, 14                  q = 0.8843
Date    TT    R. A. (2000) Decl.     Delta      r     Elong.  Phase     V
2005 11 06    06 13.90   -28 08.4    0.273    1.126   112.9    54.2    19.0
2005 11 16    05 40.63   -18 37.5    0.298    1.202   130.0    39.1    18.9
2005 11 26    05 11.98   -09 26.2    0.339    1.282   145.7    25.7    19.0
2005 12 06    04 49.35   -01 20.7    0.401    1.362   156.2    17.0    19.2
2005 12 16    04 33.79   +05 13.2    0.485    1.443   156.8    15.6    19.7
2005 12 26    04 25.00   +10 18.2    0.590    1.523   150.0    18.9    20.3
2006 01 05    04 22.06   +14 11.9    0.712    1.601   141.1    22.7    21.0
2006 01 15    04 23.93   +17 12.8    0.851    1.679   132.3    25.7    21.5

Brian G. Marsden             (C) Copyright 2005 MPC           M.P.E.C. 2005-V74

Read MPEC 2005-V73 Read MPEC 2005-V75


MPEC number:

Enter an MPEC number in one of the following forms:

  • 1997-B01 (the full form)
  • J97B01 (the packed version of the full form)
  • B01 (the abbreviated form)

Valid HTML 4.01!